Retour au catalogue

COSMOS 1275 DEB

ActifPO
NORAD 39959·DEBRIS·🇷🇺 Russia

Lancé Jun 4, 1981 depuis Plesetsk Cosmodrome

Loading…

Prochains Passages (prochaines 24 heures)

TLE

PériméSource: Space-Track

Époque: Aug 27, 2026, 15:00 UTC

1 39959U 81053NV  26239.62567281  .00000079  00000-0  65881-4 0  9999
2 39959  82.9610 205.3520 0038049 311.0916  48.6956 13.75520801613667

Suivez COSMOS 1275 DEB en temps réel avec AllMySat

Download on the App Store